CZ-6A DEB, 54385

Orbit data source: Space-Track

CZ-6A DEB, 54385 is space debris in SSO originally from a launch on Fri, 11 Nov 2022 UTC launched from the Taiyaun Space Center, China (TSC). Debris objects in space refer to the collection of defunct objects orbiting the Earth. Examples of debris include non-operational satellites, rocket bodies, and fragments generated from explosions, collisions, or faulty payload assembly.

Loading next visibility...
Identifier
54385, 2022-151DH
Orbit
SSO
Country
Flag of CNCN / PRC
Related business
Manufacturer
SAST
Mission
Spacecraft
Bus & Motor
Unknown
Mass
Unknown
Launch date (UTC)
2022-11-11 (4 years ago)
Launch vehicle
Unknown
Launch site
Taiyaun Space Center, China (TSC)
Object type
Payload
Rocket body
Debris
Shape & HBR
Unknown shape, 0.5 m
Radar Cross Section
Medium (>0.1 m² and <1 m²)

Expand to show TLE details & history
Last TLE update: 2 days ago

TLE from 2 days ago
0 CZ-6A DEB
1 54385U 22151DH  26171.39816424  .00000255  00000-0  18525-3 0  9996
2 54385  98.8961 162.5410 0076884  15.4254 344.9231 14.03657120184021
Epoch: 2026-06-20T09:33Z
TLE epoch observation values (Epoch: 2026-06-20T09:33:21.390Z)
Latitude
-0.00003°
Longitude
110.58852°
Altitude
830.173 km
Speed
7.465 km/s
True Right ascension
10h 50m 09s
True Declination
0° 00' 00"
Sunlit
Object was in daylight at epoch
Visualization orbit readout
Latitude
Unknown
Longitude
Unknown
Altitude
Unknown
Speed
Unknown
Apparent Right ascension
Unknown
Apparent Declination
Unknown
Sunlit
N/A
Visualization observer readout
Local Sidereal Time
21:28:11
Azimuth
Unknown
Elevation
Unknown
Doppler factor
Unknown
Orbital elements
Apogee altitude
934.139 km
Perigee altitude
822.557 km
Semi-major axis
7,256.485 km
Eccentricity
0.00769
Inclination
98.8961°
RAAN
162.541°
Arg. of periapsis
15.4254°
True anomaly
344.69179°
Mean anomaly
344.9231°
Eccentric anomaly
344.80766°
Mean motion
3.51119 °/min
Orbital period
102.53 mins
BSTAR
0.00018525
Loading maneuver chart data...
Computing Atmospheric mass density...
Loading historical data...
Loading historical data...
Loading historical data...
Loading historical data...
Loading historical data...
Loading historical data...
Loading historical data...

Documentation

Showing up to 5 results
|